TimeCDT,TemperatureF,Dew PointF,Humidity,Sea Level PressureIn,VisibilityMPH,Wind Direction,Wind SpeedMPH,Gust SpeedMPH,PrecipitationIn,Events,Conditions,WindDirDegrees,DateUTC
12:15 AM,38.8,26.2,61,30.29,10.0,East,9.2,-,N/A,,Clear,90,2012-10-05 05:15:00
12:35 AM,37.9,26.6,64,30.28,10.0,East,9.2,-,N/A,,Clear,80,2012-10-05 05:35:00
12:55 AM,39.2,26.4,60,30.29,10.0,ENE,9.2,-,N/A,,Clear,70,2012-10-05 05:55:00
1:15 AM,38.3,26.6,63,30.30,10.0,ENE,10.4,-,N/A,,Clear,70,2012-10-05 06:15:00
1:35 AM,36.9,27.1,68,30.30,10.0,ENE,8.1,-,N/A,,Clear,60,2012-10-05 06:35:00
1:55 AM,34.3,26.6,73,30.30,10.0,NE,6.9,-,N/A,,Clear,50,2012-10-05 06:55:00
2:15 AM,35.6,27.3,72,30.29,10.0,East,8.1,-,N/A,,Clear,80,2012-10-05 07:15:00
2:35 AM,35.8,27.7,72,30.31,10.0,ENE,6.9,-,N/A,,Clear,70,2012-10-05 07:35:00
2:55 AM,36.5,27.9,71,30.31,10.0,ENE,6.9,-,N/A,,Clear,70,2012-10-05 07:55:00
3:15 AM,36.5,28.2,72,30.28,10.0,East,9.2,-,N/A,,Clear,80,2012-10-05 08:15:00
3:35 AM,37.2,28.0,69,30.28,10.0,East,10.4,-,N/A,,Clear,90,2012-10-05 08:35:00
3:55 AM,37.9,27.5,66,30.27,10.0,East,10.4,-,N/A,,Clear,90,2012-10-05 08:55:00
4:15 AM,37.9,27.7,67,30.24,10.0,East,16.1,-,N/A,,Mostly Cloudy,90,2012-10-05 09:15:00
4:35 AM,37.9,27.5,66,30.25,10.0,East,13.8,-,N/A,,Mostly Cloudy,80,2012-10-05 09:35:00
4:55 AM,37.9,27.5,66,30.25,10.0,East,13.8,-,N/A,,Mostly Cloudy,100,2012-10-05 09:55:00
5:15 AM,38.3,27.3,65,30.26,10.0,East,11.5,-,N/A,,Overcast,80,2012-10-05 10:15:00
5:35 AM,38.5,27.3,64,30.28,10.0,ENE,9.2,-,N/A,,Overcast,70,2012-10-05 10:35:00
5:55 AM,38.3,27.3,65,30.28,10.0,East,9.2,-,N/A,,Overcast,80,2012-10-05 10:55:00
6:15 AM,38.3,27.3,65,30.26,10.0,East,10.4,-,N/A,,Overcast,80,2012-10-05 11:15:00
6:35 AM,38.3,27.3,65,30.25,10.0,East,10.4,-,N/A,,Overcast,90,2012-10-05 11:35:00
6:55 AM,37.9,27.5,66,30.26,10.0,East,6.9,-,N/A,,Overcast,100,2012-10-05 11:55:00
7:15 AM,38.3,27.9,66,30.27,10.0,East,4.6,-,N/A,,Overcast,80,2012-10-05 12:15:00
7:35 AM,38.3,27.7,66,30.27,10.0,East,4.6,-,N/A,,Overcast,90,2012-10-05 12:35:00
7:55 AM,38.3,28.0,67,30.29,10.0,ENE,3.5,-,N/A,,Overcast,60,2012-10-05 12:55:00
8:15 AM,37.9,29.3,71,30.31,5.0,Calm,Calm,-,N/A,Snow,Light Snow,0,2012-10-05 13:15:00
8:35 AM,37.6,30.6,76,30.31,7.0,East,4.6,-,N/A,Snow,Light Snow,90,2012-10-05 13:35:00
8:55 AM,36.5,31.6,83,30.29,5.0,ESE,9.2,-,N/A,Snow,Light Snow,120,2012-10-05 13:55:00
9:15 AM,34.7,32.0,90,30.30,1.5,ESE,8.1,-,N/A,Snow,Light Snow,120,2012-10-05 14:15:00
9:35 AM,34.3,32.0,91,30.30,2.5,ESE,6.9,-,N/A,Snow,Light Snow,110,2012-10-05 14:35:00
9:55 AM,34.7,32.4,91,30.29,2.5,ESE,8.1,-,N/A,Snow,Light Snow,120,2012-10-05 14:55:00
10:15 AM,35.2,33.1,92,30.31,4.0,ESE,8.1,-,N/A,Snow,Light Snow,120,2012-10-05 15:15:00
10:35 AM,36.1,34.2,93,30.29,10.0,ESE,12.7,-,N/A,Rain,Light Rain,120,2012-10-05 15:35:00
10:55 AM,36.5,34.2,91,30.31,10.0,ESE,11.5,-,N/A,,Overcast,110,2012-10-05 15:55:00
11:15 AM,37.0,34.5,91,30.31,10.0,East,10.4,-,N/A,,Overcast,100,2012-10-05 16:15:00
11:35 AM,37.0,34.2,89,30.31,10.0,East,10.4,-,N/A,,Overcast,90,2012-10-05 16:35:00
11:55 AM,36.7,33.8,89,30.34,10.0,ENE,9.2,-,N/A,,Light Drizzle,70,2012-10-05 16:55:00
12:15 PM,35.2,32.9,91,30.34,5.0,ENE,6.9,-,N/A,,Overcast,60,2012-10-05 17:15:00
12:35 PM,35.6,33.4,92,30.33,10.0,ENE,8.1,-,N/A,Rain,Light Rain,70,2012-10-05 17:35:00
12:55 PM,36.0,33.8,92,30.33,10.0,East,8.1,-,N/A,Rain,Light Rain,80,2012-10-05 17:55:00
1:35 PM,36.5,33.8,90,30.32,10.0,East,11.5,-,N/A,,Overcast,90,2012-10-05 18:35:00
1:55 PM,36.7,34.2,91,30.32,10.0,East,9.2,-,N/A,,Overcast,80,2012-10-05 18:55:00
2:15 PM,36.5,34.2,91,30.31,10.0,East,9.2,-,N/A,,Overcast,90,2012-10-05 19:15:00
2:35 PM,36.5,34.2,91,30.31,10.0,ENE,8.1,-,N/A,,Overcast,70,2012-10-05 19:35:00
2:55 PM,36.5,34.2,91,30.31,10.0,ENE,10.4,-,N/A,,Overcast,70,2012-10-05 19:55:00
3:15 PM,36.5,34.2,91,30.31,10.0,ENE,9.2,-,N/A,,Overcast,70,2012-10-05 20:15:00
3:35 PM,36.9,34.2,90,30.31,10.0,East,8.1,-,N/A,,Overcast,80,2012-10-05 20:35:00
3:55 PM,37.2,34.0,88,30.30,10.0,East,8.1,-,N/A,,Overcast,80,2012-10-05 20:55:00
4:15 PM,37.2,34.2,89,30.30,10.0,East,9.2,-,N/A,,Overcast,80,2012-10-05 21:15:00
4:35 PM,37.6,34.3,88,30.30,10.0,ENE,6.9,-,N/A,,Overcast,60,2012-10-05 21:35:00
4:55 PM,37.6,34.2,87,30.30,10.0,ENE,5.8,-,N/A,,Overcast,70,2012-10-05 21:55:00
5:15 PM,37.9,34.2,86,30.31,10.0,East,5.8,-,N/A,,Overcast,90,2012-10-05 22:15:00
5:35 PM,38.1,34.0,85,30.31,10.0,East,6.9,-,N/A,,Overcast,80,2012-10-05 22:35:00
5:55 PM,37.9,33.4,84,30.31,10.0,East,4.6,-,N/A,,Overcast,80,2012-10-05 22:55:00
6:15 PM,37.9,33.8,85,30.32,10.0,East,6.9,-,N/A,,Overcast,80,2012-10-05 23:15:00
6:35 PM,38.3,33.6,83,30.31,10.0,East,4.6,-,N/A,,Overcast,100,2012-10-05 23:35:00
6:55 PM,38.3,33.3,82,30.32,10.0,Calm,Calm,-,N/A,,Overcast,0,2012-10-05 23:55:00
7:15 PM,38.3,33.3,82,30.33,10.0,East,3.5,-,N/A,,Overcast,100,2012-10-06 00:15:00
7:35 PM,38.3,33.1,81,30.33,10.0,Calm,Calm,-,N/A,,Overcast,0,2012-10-06 00:35:00
7:55 PM,38.5,33.4,82,30.33,10.0,Calm,Calm,-,N/A,,Overcast,0,2012-10-06 00:55:00
8:15 PM,38.5,33.6,83,30.34,10.0,Calm,Calm,-,N/A,,Overcast,0,2012-10-06 01:15:00
8:35 PM,38.1,34.0,85,30.35,10.0,NNE,6.9,-,N/A,,Overcast,30,2012-10-06 01:35:00
8:55 PM,37.4,34.3,89,30.35,10.0,North,6.9,-,N/A,,Overcast,10,2012-10-06 01:55:00
9:15 PM,37.2,33.8,87,30.36,10.0,North,6.9,-,N/A,,Overcast,10,2012-10-06 02:15:00
9:35 PM,37.0,33.6,87,30.36,10.0,NNE,5.8,-,N/A,,Overcast,20,2012-10-06 02:35:00
9:55 PM,37.2,33.3,86,30.36,10.0,NNE,4.6,-,N/A,,Overcast,20,2012-10-06 02:55:00
10:15 PM,37.2,33.3,86,30.35,10.0,NNE,9.2,-,N/A,,Overcast,20,2012-10-06 03:15:00
10:35 PM,36.7,32.9,86,30.35,10.0,North,4.6,-,N/A,,Overcast,10,2012-10-06 03:35:00
10:55 PM,36.7,32.9,86,30.34,10.0,North,6.9,-,N/A,,Overcast,10,2012-10-06 03:55:00
11:15 PM,36.0,32.5,87,30.34,10.0,Calm,Calm,-,N/A,,Scattered Clouds,0,2012-10-06 04:15:00
11:35 PM,35.8,32.5,88,30.34,10.0,Calm,Calm,-,N/A,,Mostly Cloudy,0,2012-10-06 04:35:00
11:55 PM,36.5,33.8,90,30.34,10.0,Calm,Calm,-,N/A,,Overcast,0,2012-10-06 04:55:00